Location: Newark
(39.6867°N, 100.6772°W)
Time: 06:26:49
(UTC+00:00)

ISS - Pass Details

Date: 21 September 2019
Orbit: 411 x 421 km, 51.6° (Epoch: 17 October)

Event Time Altitude Azimuth Distance (km) Brightness Sun altitude
Rises 03:07:34 0° 268° (W) 2,337 0.9 -27.6°
Reaches altitude 10° 03:10:00 10° 286° (WNW) 1,477 -0.1 -28.0°
Enters shadow 03:11:36 18° 312° (NW) 1,080 -1.0 -28.3°
